Regional Weather Roundup
Issued by NWS Charleston, SC

Current Version | Previous Version | Graphics & Text | Print | Product List | Glossary On
Versions: 1 2 3 4 5 6 7 8 9 10 11 12 13 14 15 16 17 18 19 20 21 22 23 24 25 26 27 28 29 30 31 32 33 34 35 36 37 38 39 40 41 42 43 44 45 46 47 48 49 50
000
ASUS42 KCHS 291712
RWRCHS

REGIONAL WEATHER ROUNDUP
NATIONAL WEATHER SERVICE CHARLESTON SC
100 PM EDT WED MAR 29 2017

NOTE: "FAIR" INDICATES FEW OR NO CLOUDS BELOW 12,000 FEET WITH NO
SIGNIFICANT WEATHER AND/OR OBSTRUCTIONS TO VISIBILITY.

NOT ALL STATIONS ARE QUALITY CONTROLLED. USE DATA WITH CAUTION...
ESPECIALLY DEWPOINT OBSERVATIONS.

SCZ027-030-031-034>040-042>050-291800-
...SOUTHEAST SOUTH CAROLINA...

CITY           SKY/WX    TMP DP  RH WIND       PRES   REMARKS
N CHARLESTON   MOSUNNY   81  52  36 NE7       30.02F
WATERFRONT PRK   N/A     72  62  71 E10       30.00F
JOHNS ISLAND   FAIR      77  59  53 E9        30.03F
PINOPOLIS        N/A     68  61  77 NW6       29.97S
MONCKS CORNER  FAIR      77  52  41 N3        30.03F
SUMMERVILLE    FAIR      79  52  38 CALM      30.03F
BEAUFORT MCAS  SUNNY     79  58  48 E5        30.03F
BEAUFORT ARPT  FAIR      77  59  53 NE8       30.03F
HILTON HEAD IS SUNNY     73  57  56 NE8       30.06S
WALTERBORO     SUNNY     79  52  38 CALM      30.04F
ALLENDALE      FAIR      79  52  38 VRB5G12   30.03F

...SOUTHERN MIDLANDS AND PEE DEE...

CITY           SKY/WX    TMP DP  RH WIND       PRES   REMARKS
GEORGETOWN     FAIR      77  54  44 SE12      30.04S
KINGSTREE      FAIR      79  48  34 N5        30.03F
ORANGEBURG     SUNNY     79  51  37 NE7       30.04F
BARNWELL       FAIR      81  54  39 CALM      30.04F
AIKEN          FAIR      77  50  38 CALM      30.08F
MANNING        FAIR      77  46  33 N5        30.04F
COLUMBIA       MOSUNNY   79  51  37 N6        30.04F
SUMTER         MOSUNNY   78  51  39 CALM      30.02F
FLORENCE       SUNNY     77  56  48 N7        30.04F
MYRTLE BEACH   MOSUNNY   75  55  50 SE12      30.04F
N MYRTLE BEACH MOSUNNY   72  58  61 SE12      30.03S

$$

GAZ063-065-086>088-099>101-113>116-118-119-134>141-150-291800-
...SOUTHEAST GEORGIA...

CITY           SKY/WX    TMP DP  RH WIND       PRES   REMARKS
SAVANNAH ARPT  PTSUNNY   83  56  39 E7        30.03F
HUNTER AAF     MOSUNNY   80  60  51 E12       30.01F
FORT STEWART   MOSUNNY   83  58  43 CALM      30.01S
STATESBORO     SUNNY     81  57  43 W3        30.04F
SYLVANIA       SUNNY    N/A N/A N/A CALM      30.05F
CLAXTON        FAIR      81  58  44 CALM      30.03F

...CSRA...CENTRAL AND FAR SOUTHEAST GEORGIA...

CITY           SKY/WX    TMP DP  RH WIND       PRES   REMARKS
THOMSON        SUNNY     77  50  38 SE5       30.10F
AUGUSTA-BUSH   SUNNY     81  51  35 CALM      30.03F
AUGUSTA-DANIEL SUNNY     80  48  32 VRB3      30.06F
SWAINSBORO     FAIR      79  52  38 S3        30.05F
VIDALIA        MOSUNNY   82  52  34 CALM      30.04F
EASTMAN        FAIR      84  42  22 CALM      30.05F
HAZLEHURST     FAIR      82  63  52 CALM      30.03F
ALMA           MOSUNNY   82  63  52 SW6       30.03F
WAYCROSS       MOSUNNY   85  66  53 CALM      30.03F
JESUP          FAIR      82  59  44 NW12      30.03F
BAXLEY         FAIR      82  66  57 N5        30.03F
BRUNSWICK      MOSUNNY   86  64  48 W7G16     30.03S
SAINT SIMONS   MOSUNNY   77  64  64 E9        30.03F

$$

SCZ027-028-034-036>038-045-046-048>050-GAZ119-141-291800-
...LAKE AND SUPPLEMENTAL COASTAL OBSERVATIONS...

STATION/POSITION TIME  TEMP    WIND        PRES    WAVE   SWELL
                       AIR SEA DIR/SP/G            HT/PER HT/PER/DIR
                 (UTC) (F)     (DEG/KT/KT) (MB)    (FT/S) (FT/S/D)
WINYAH BAY       NOT AVBL
LAKE MURRAY      1620   71     210/  2/  3 1017.3F
ACE BASIN NERRS  1545   78      50/  2     1017.0
FORT PULASKI     1648   69 66   70/ 10/ 12 1017.7S
SAPELO ISLAND    1600   80      10/  3     1017.0

$$

ANZ835-935-AMZ111-154-330-350-352-354-370-450-454-472-291800-
...C-MAN AND BUOY OBSERVATIONS...

STATION/POSITION TIME  TEMP    WIND        PRES    WAVE   SWELL
                       AIR SEA DIR/SP/G            HT/PER HT/PER/DIR
                 (UTC) (F)     (DEG/KT/KT) (MB)    (FT/S) (FT/S/D)
BUOY 41004       1550   70 71   20/  6/  6 1016.4    4/10   3/100/10
BUOY 41008       1550   68 66  280/  2/  2 1017.1    3/11   2/120/11
FOLLY BEACH CMAN 1600   69      60/  7/  7 1017.9R
CAPERS NEARSHORE NOT AVBL
FRIPP NEARSHORE  1608   66 63   60/  8/ 10 1016.9F


STATION/POSITION TIME  TEMP    WIND        PRES    WAVE   SWELL
                       AIR SEA DIR/SP/G            HT/PER HT/PER/DIR
                 (UTC) (F)     (DEG/KT/KT) (MB)    (FT/S) (FT/S/D)
5E ST. MARYS GA  1630      69                N/A     3/12   2/110/12
FRYING PAN BUOY  1650   69 73   10/ 14/ 16 1016.8R   4/10   3/130/10
BUOY 41025       1650   57 73   20/ 19/ 23 1017.4R   7/10   3/140/10
CAPE LOOKOUT NC  1600   58      30/ 19/ 24 1018.1R
BUOY 41002       1650   72 72  250/ 10/ 12 1014.7F   7/10   7/100/10
BUOY 41010       NOT AVBL
ST AUGUSTINE FL  1700   73 68   80/  6/  6 1018.1F


$$




USA.gov is the U.S. government's official web portal to all federal, state and local government web resources and services.